RYR507 EDDK-LOWI

Flight info

Callsign RYR507
Flight time 0h 50m
Altitude 34000
Route KUMIK1R KUMIK Y854 BOMBI DCT GIGET DCT ABUKA/N0459F350 DCT UTABA M738 MADEB MADEB1B
Aircraft B38M/M-SDE1FGHILORVWXY/HB1

Departure

Time 2026-05-06 18:33
Airport Cologne Bonn Airport (EDDK)

Arrival

Time 2026-05-06 19:23
Airport Innsbruck Airport (LOWI)
Time Latitude Longitude Altitude Speed Heading
2026-05-06 17:33 50.87733 7.12394 234 ft 0 kts 288°
2026-05-06 18:10 50.87731 7.12401 239 ft 2 kts 288°
2026-05-06 18:10 50.87725 7.12429 235 ft 3 kts 288°
2026-05-06 18:10 50.87719 7.12460 235 ft 3 kts 287°
2026-05-06 18:11 50.87712 7.12490 237 ft 3 kts 296°
2026-05-06 18:11 50.87706 7.12506 235 ft 3 kts 319°
2026-05-06 18:11 50.87697 7.12513 236 ft 2 kts 16°
2026-05-06 18:11 50.87678 7.12504 235 ft 3 kts 18°
2026-05-06 18:12 50.87671 7.12500 239 ft 1 kts 18°
2026-05-06 18:16 50.87680 7.12505 236 ft 3 kts 18°
2026-05-06 18:17 50.87705 7.12518 235 ft 5 kts 18°
2026-05-06 18:17 50.87745 7.12540 236 ft 7 kts 21°
2026-05-06 18:17 50.87775 7.12605 237 ft 8 kts 84°
2026-05-06 18:17 50.87760 7.12704 236 ft 10 kts 121°
2026-05-06 18:18 50.87706 7.12789 235 ft 7 kts 137°
2026-05-06 18:18 50.87686 7.12819 237 ft 0 kts 137°
2026-05-06 18:19 50.87682 7.12824 238 ft 2 kts 137°
2026-05-06 18:19 50.87666 7.12847 236 ft 4 kts 137°
2026-05-06 18:20 50.87638 7.12888 235 ft 7 kts 138°
2026-05-06 18:20 50.87595 7.12950 236 ft 10 kts 137°
2026-05-06 18:20 50.87537 7.13033 235 ft 12 kts 137°
2026-05-06 18:20 50.87469 7.13132 235 ft 14 kts 137°
2026-05-06 18:21 50.87412 7.13215 235 ft 11 kts 137°
2026-05-06 18:21 50.87351 7.13303 236 ft 13 kts 137°
2026-05-06 18:21 50.87280 7.13406 235 ft 14 kts 137°
2026-05-06 18:21 50.87208 7.13510 238 ft 14 kts 137°
2026-05-06 18:22 50.87137 7.13613 241 ft 14 kts 137°
2026-05-06 18:22 50.87067 7.13715 243 ft 13 kts 137°
2026-05-06 18:22 50.86999 7.13813 246 ft 13 kts 137°
2026-05-06 18:22 50.86936 7.13904 251 ft 11 kts 137°
2026-05-06 18:23 50.86890 7.13970 255 ft 7 kts 137°
2026-05-06 18:23 50.86859 7.14015 257 ft 6 kts 137°
2026-05-06 18:23 50.86821 7.14070 257 ft 9 kts 137°
2026-05-06 18:23 50.86756 7.14131 257 ft 12 kts 170°
2026-05-06 18:24 50.86735 7.14141 258 ft 2 kts 155°
2026-05-06 18:24 50.86719 7.14158 259 ft 5 kts 146°
2026-05-06 18:24 50.86671 7.14226 262 ft 12 kts 135°
2026-05-06 18:24 50.86606 7.14322 264 ft 14 kts 137°
2026-05-06 18:25 50.86518 7.14449 267 ft 19 kts 137°
2026-05-06 18:25 50.86418 7.14594 273 ft 19 kts 138°
2026-05-06 18:25 50.86323 7.14732 279 ft 18 kts 137°
2026-05-06 18:25 50.86238 7.14855 284 ft 16 kts 138°
2026-05-06 18:26 50.86161 7.14966 288 ft 15 kts 137°
2026-05-06 18:26 50.86086 7.15075 300 ft 15 kts 137°
2026-05-06 18:26 50.86011 7.15184 295 ft 15 kts 137°
2026-05-06 18:26 50.85934 7.15296 298 ft 15 kts 137°
2026-05-06 18:27 50.85856 7.15409 302 ft 15 kts 137°
2026-05-06 18:27 50.85778 7.15522 301 ft 15 kts 137°
2026-05-06 18:27 50.85700 7.15634 303 ft 15 kts 137°
2026-05-06 18:27 50.85623 7.15746 306 ft 15 kts 137°
2026-05-06 18:28 50.85547 7.15857 309 ft 15 kts 137°
2026-05-06 18:28 50.85469 7.15968 311 ft 16 kts 137°
2026-05-06 18:28 50.85384 7.16093 310 ft 18 kts 134°
2026-05-06 18:28 50.85335 7.16275 310 ft 19 kts 89°
2026-05-06 18:29 50.85368 7.16424 310 ft 7 kts 51°
2026-05-06 18:29 50.85410 7.16480 310 ft 0 kts 31°
2026-05-06 18:30 50.85414 7.16485 310 ft 2 kts 31°
2026-05-06 18:30 50.85433 7.16501 311 ft 5 kts 26°
2026-05-06 18:31 50.85477 7.16516 310 ft 8 kts
2026-05-06 18:31 50.85550 7.16516 310 ft 12 kts 347°
2026-05-06 18:31 50.85580 7.16483 310 ft 0 kts 316°
2026-05-06 18:32 50.85582 7.16480 310 ft 1 kts 316°
2026-05-06 18:32 50.85598 7.16456 311 ft 7 kts 316°
2026-05-06 18:32 50.85796 7.16168 308 ft 82 kts 317°
2026-05-06 18:32 50.86427 7.15258 300 ft 159 kts 318°
2026-05-06 18:33 50.87304 7.14000 1010 ft 176 kts 319°
2026-05-06 18:33 50.88216 7.12673 2124 ft 185 kts 319°
2026-05-06 18:33 50.89278 7.11249 2441 ft 215 kts 329°
2026-05-06 18:33 50.90702 7.10634 3276 ft 213 kts
2026-05-06 18:34 50.92030 7.11412 4397 ft 209 kts 31°
2026-05-06 18:34 50.93115 7.13021 5164 ft 221 kts 51°
2026-05-06 18:34 50.93902 7.15226 5815 ft 239 kts 62°
2026-05-06 18:34 50.94682 7.17679 6396 ft 258 kts 61°
2026-05-06 18:35 50.95516 7.20304 7029 ft 273 kts 62°
2026-05-06 18:35 50.96372 7.23007 7960 ft 275 kts 61°
2026-05-06 18:35 50.97235 7.25734 8899 ft 279 kts 61°
2026-05-06 18:35 50.98109 7.28497 9851 ft 281 kts 60°
2026-05-06 18:36 50.99002 7.31321 10469 ft 294 kts 61°
2026-05-06 18:36 50.99950 7.34326 10848 ft 315 kts 61°
2026-05-06 18:36 51.00958 7.37528 11259 ft 332 kts 62°
2026-05-06 18:36 51.01675 7.41100 11761 ft 348 kts 82°
2026-05-06 18:37 51.01528 7.44988 12361 ft 360 kts 103°
2026-05-06 18:37 51.00787 7.48821 13094 ft 366 kts 106°
2026-05-06 18:37 51.00033 7.52711 13808 ft 371 kts 106°
2026-05-06 18:37 50.99265 7.56645 14481 ft 375 kts 107°
2026-05-06 18:38 50.98487 7.60618 15121 ft 381 kts 108°
2026-05-06 18:38 50.97692 7.64659 15795 ft 385 kts 108°
2026-05-06 18:38 50.96889 7.68734 16472 ft 389 kts 108°
2026-05-06 18:38 50.96076 7.72849 17142 ft 393 kts 108°
2026-05-06 18:39 50.95264 7.76952 17774 ft 397 kts 108°
2026-05-06 18:39 50.94370 7.81174 18369 ft 400 kts 115°
2026-05-06 18:39 50.92975 7.84912 18959 ft 400 kts 124°
2026-05-06 18:40 50.89911 7.92384 20074 ft 407 kts 124°
2026-05-06 18:40 50.88350 7.96134 20639 ft 409 kts 125°
2026-05-06 18:40 50.86772 7.99910 21198 ft 412 kts 125°
2026-05-06 18:40 50.85181 8.03706 21742 ft 415 kts 126°
2026-05-06 18:41 50.83335 8.07202 22254 ft 413 kts 142°
2026-05-06 18:41 50.81003 8.09843 22777 ft 414 kts 149°
2026-05-06 18:41 50.78588 8.12372 23273 ft 418 kts 149°
2026-05-06 18:41 50.76148 8.14885 23732 ft 420 kts 149°
2026-05-06 18:42 50.73682 8.17392 24184 ft 422 kts 150°
2026-05-06 18:42 50.71201 8.19895 24636 ft 424 kts 150°
2026-05-06 18:42 50.68710 8.22401 25078 ft 426 kts 150°
2026-05-06 18:42 50.66205 8.24917 25515 ft 428 kts 149°
2026-05-06 18:43 50.63681 8.27451 25939 ft 430 kts 149°
2026-05-06 18:43 50.61154 8.29978 26352 ft 432 kts 149°
2026-05-06 18:43 50.58612 8.32521 26763 ft 434 kts 150°
2026-05-06 18:43 50.56058 8.35072 27210 ft 435 kts 149°
2026-05-06 18:44 50.53505 8.37617 27710 ft 434 kts 149°
2026-05-06 18:44 50.50946 8.40165 28073 ft 437 kts 149°
2026-05-06 18:44 50.48373 8.42723 28466 ft 438 kts 149°
2026-05-06 18:44 50.45793 8.45286 28868 ft 440 kts 149°
2026-05-06 18:45 50.43201 8.47857 29247 ft 442 kts 149°
2026-05-06 18:45 50.40597 8.50438 29610 ft 443 kts 149°
2026-05-06 18:45 50.37975 8.52990 29948 ft 444 kts 153°
2026-05-06 18:45 50.36167 8.54493 30152 ft 445 kts 154°
2026-05-06 18:46 50.32505 8.57525 30656 ft 444 kts 153°
2026-05-06 18:46 50.29784 8.59806 31073 ft 443 kts 153°
2026-05-06 18:46 50.27071 8.62089 31483 ft 442 kts 153°
2026-05-06 18:46 50.24367 8.64367 31885 ft 441 kts 153°
2026-05-06 18:47 50.21664 8.66645 32288 ft 441 kts 154°
2026-05-06 18:47 50.18967 8.68912 32676 ft 440 kts 154°
2026-05-06 18:47 50.16265 8.71182 32842 ft 441 kts 154°
2026-05-06 18:48 50.10886 8.75694 32827 ft 438 kts 154°
2026-05-06 18:48 50.05298 8.79159 32815 ft 429 kts 175°
2026-05-06 18:49 49.99337 8.79154 32820 ft 429 kts 182°
2026-05-06 18:49 49.93415 8.78130 32833 ft 429 kts 192°
2026-05-06 18:50 49.87621 8.76320 32816 ft 428 kts 187°
2026-05-06 18:50 49.81706 8.75064 32818 ft 429 kts 187°
2026-05-06 18:51 49.75785 8.73837 32818 ft 429 kts 187°
2026-05-06 18:51 49.69864 8.72624 32823 ft 429 kts 187°
2026-05-06 18:52 49.63951 8.71427 32824 ft 429 kts 187°
2026-05-06 18:52 49.58013 8.70229 32829 ft 430 kts 187°
2026-05-06 18:53 49.52077 8.69033 32830 ft 430 kts 187°
2026-05-06 18:53 49.46133 8.68804 32815 ft 430 kts 167°
2026-05-06 18:54 49.40510 8.72064 32819 ft 434 kts 159°
2026-05-06 18:54 49.34906 8.75645 32824 ft 437 kts 158°
2026-05-06 18:55 49.29319 8.79304 32828 ft 437 kts 158°
2026-05-06 18:55 49.23765 8.82955 32826 ft 437 kts 158°
2026-05-06 18:56 49.18185 8.86618 32833 ft 437 kts 158°
2026-05-06 18:56 49.12605 8.90272 32833 ft 435 kts 159°
2026-05-06 18:57 49.07043 8.93904 32833 ft 434 kts 159°
2026-05-06 18:57 49.02423 8.96916 32835 ft 435 kts 159°
2026-05-06 18:58 48.96856 9.00536 32846 ft 435 kts 159°
2026-05-06 18:58 48.91285 9.04149 32847 ft 436 kts 159°
2026-05-06 18:59 48.85705 9.07760 32852 ft 436 kts 159°
2026-05-06 18:59 48.80123 9.11364 32855 ft 436 kts 159°
2026-05-06 19:00 48.74537 9.14961 32854 ft 436 kts 159°
2026-05-06 19:00 48.68944 9.18555 32839 ft 436 kts 160°
2026-05-06 19:01 48.63379 9.22120 32863 ft 433 kts 160°
2026-05-06 19:01 48.57821 9.25673 32857 ft 434 kts 160°
2026-05-06 19:02 48.52261 9.29220 32848 ft 434 kts 160°
2026-05-06 19:02 48.46694 9.32761 32871 ft 434 kts 160°
2026-05-06 19:03 48.41125 9.36297 32880 ft 434 kts 160°
2026-05-06 19:03 48.35559 9.39821 32861 ft 434 kts 160°
2026-05-06 19:04 48.29990 9.43342 32873 ft 434 kts 160°
2026-05-06 19:04 48.24385 9.46645 32844 ft 430 kts 167°
2026-05-06 19:05 48.18659 9.49145 32872 ft 431 kts 167°
2026-05-06 19:05 48.12905 9.51641 32878 ft 431 kts 167°
2026-05-06 19:06 48.07144 9.54134 32878 ft 431 kts 167°
2026-05-06 19:06 48.01490 9.57132 32865 ft 438 kts 152°
2026-05-06 19:07 47.96469 9.62396 32888 ft 442 kts 149°
2026-05-06 19:07 47.93962 9.65048 32589 ft 438 kts 149°
2026-05-06 19:07 47.91469 9.67708 31450 ft 446 kts 149°
2026-05-06 19:07 47.88933 9.70433 30587 ft 448 kts 149°
2026-05-06 19:08 47.86426 9.73134 30025 ft 442 kts 149°
2026-05-06 19:08 47.83938 9.75811 29105 ft 441 kts 149°
2026-05-06 19:08 47.81445 9.78489 28088 ft 444 kts 149°
2026-05-06 19:08 47.78941 9.81177 27312 ft 442 kts 149°
2026-05-06 19:09 47.76459 9.83837 26662 ft 438 kts 149°
2026-05-06 19:09 47.74002 9.86467 26037 ft 433 kts 149°
2026-05-06 19:09 47.71572 9.89066 25477 ft 428 kts 149°
2026-05-06 19:09 47.69173 9.91629 25052 ft 420 kts 149°
2026-05-06 19:10 47.66792 9.94167 24932 ft 423 kts 149°
2026-05-06 19:10 47.64401 9.96715 24899 ft 424 kts 149°
2026-05-06 19:10 47.62005 9.99265 24906 ft 424 kts 149°
2026-05-06 19:10 47.59609 10.01812 24912 ft 424 kts 149°
2026-05-06 19:11 47.57210 10.04361 24792 ft 425 kts 149°
2026-05-06 19:11 47.54821 10.06897 24315 ft 420 kts 149°
2026-05-06 19:11 47.52453 10.09407 23697 ft 418 kts 148°
2026-05-06 19:11 47.50096 10.11902 23118 ft 416 kts 148°
2026-05-06 19:12 47.47753 10.14378 22449 ft 412 kts 147°
2026-05-06 19:12 47.45433 10.16830 21795 ft 409 kts 147°
2026-05-06 19:12 47.43080 10.19133 21180 ft 403 kts 151°
2026-05-06 19:12 47.40707 10.21301 20557 ft 400 kts 151°
2026-05-06 19:13 47.38357 10.23467 19949 ft 397 kts 150°
2026-05-06 19:13 47.36025 10.25628 19350 ft 394 kts 149°
2026-05-06 19:13 47.33926 10.28233 18758 ft 398 kts 133°
2026-05-06 19:13 47.32437 10.31693 18154 ft 404 kts 116°
2026-05-06 19:14 47.31637 10.35682 17442 ft 409 kts 105°
2026-05-06 19:14 47.31019 10.39762 16773 ft 409 kts 105°
2026-05-06 19:14 47.30422 10.43860 16113 ft 409 kts 104°
2026-05-06 19:14 47.29837 10.47968 15453 ft 409 kts 104°
2026-05-06 19:15 47.29262 10.52072 14815 ft 409 kts 104°
2026-05-06 19:15 47.28706 10.56174 14189 ft 409 kts 101°
2026-05-06 19:15 47.28692 10.60383 13486 ft 413 kts 88°
2026-05-06 19:15 47.28877 10.64595 12826 ft 412 kts 89°
2026-05-06 19:16 47.29040 10.68768 11983 ft 402 kts 89°
2026-05-06 19:16 47.29203 10.72814 11301 ft 390 kts 89°
2026-05-06 19:16 47.29360 10.76747 10630 ft 379 kts 88°
2026-05-06 19:16 47.29511 10.80576 9999 ft 369 kts 89°
2026-05-06 19:17 47.29654 10.84206 9715 ft 349 kts 89°
2026-05-06 19:17 47.29790 10.87680 9478 ft 330 kts 88°
2026-05-06 19:17 47.29915 10.90937 9341 ft 307 kts 89°
2026-05-06 19:17 47.30032 10.93990 9209 ft 292 kts 90°
2026-05-06 19:18 47.30141 10.96888 9105 ft 275 kts 89°
2026-05-06 19:18 47.30244 10.99627 8923 ft 260 kts 90°
2026-05-06 19:18 47.30340 11.02211 8729 ft 243 kts 89°
2026-05-06 19:18 47.30427 11.04554 8643 ft 214 kts 90°
2026-05-06 19:19 47.30499 11.06620 8274 ft 195 kts 90°
2026-05-06 19:19 47.30424 11.08537 7735 ft 183 kts 107°
2026-05-06 19:19 47.30039 11.10291 7233 ft 178 kts 111°
2026-05-06 19:19 47.29584 11.11989 6755 ft 177 kts 112°
2026-05-06 19:20 47.29102 11.13654 6304 ft 176 kts 112°
2026-05-06 19:20 47.28619 11.15312 5820 ft 176 kts 112°
2026-05-06 19:20 47.28151 11.16965 5280 ft 175 kts 111°
2026-05-06 19:20 47.27748 11.18633 4723 ft 171 kts 108°
2026-05-06 19:21 47.27373 11.20279 4148 ft 170 kts 108°
2026-05-06 19:21 47.26979 11.21953 3523 ft 174 kts 109°
2026-05-06 19:21 47.26499 11.23531 3266 ft 168 kts 114°
2026-05-06 19:21 47.25984 11.25103 3195 ft 170 kts 117°
2026-05-06 19:22 47.25593 11.26720 2977 ft 168 kts 101°
2026-05-06 19:22 47.25482 11.28461 2677 ft 173 kts 90°
2026-05-06 19:22 47.25590 11.30217 2434 ft 170 kts 86°
2026-05-06 19:22 47.25767 11.31866 2154 ft 156 kts 87°
2026-05-06 19:23 47.25911 11.33359 1902 ft 137 kts 82°
2026-05-06 19:23 47.26032 11.34534 1904 ft 86 kts 80°
2026-05-06 19:23 47.26103 11.35175 1903 ft 33 kts 81°
2026-05-06 19:23 47.26065 11.35257 1903 ft 10 kts 168°
2026-05-06 19:24 47.25988 11.35275 1903 ft 12 kts 171°
2026-05-06 19:24 47.25927 11.35289 1899 ft 0 kts 175°
2026-05-06 19:24 47.25923 11.35288 1906 ft 2 kts 185°
2026-05-06 19:24 47.25907 11.35272 1906 ft 4 kts 233°
2026-05-06 19:25 47.25898 11.35223 1906 ft 7 kts 259°
2026-05-06 19:25 47.25886 11.35119 1906 ft 7 kts 257°
2026-05-06 19:25 47.25844 11.35104 1906 ft 5 kts 164°
2026-05-06 19:25 47.25832 11.35108 1906 ft 0 kts 170°
2026-05-06 19:39 47.25832 11.35109 1906 ft 0 kts 171°